Location: Newark
(11.4947°N, 0.1467°E)
Time: 23:01:16
(UTC+00:00)

Hubble Space Telescope - Pass Details

Date: 17 November 2019
Orbit: 536 x 540 km, 28.5° (Epoch: 11 December)

Event Time Altitude Azimuth Distance (km) Brightness Sun altitude
Rises 18:20:06 0° 273° (W) 2,667 5.8 -12.1°
Reaches altitude 10° 18:22:47 10° 289° (WNW) 1,777 4.3 -12.7°
Maximum altitude 18:25:55 21° 339° (NNW) 1,234 2.6 -13.4°
Enters shadow 18:28:35 12° 25° (NNE) 1,644 2.9 -14.0°
